TITAN 3C TRANSTAGE DEB, 3373

Orbit data source: Space-Track

TITAN 3C TRANSTAGE DEB, 3373 is space debris in LEO originally from a launch on Fri, 15 Oct 1965 UTC launched from the Air Force Eastern Test Range (AFETR). Debris objects in space refer to the collection of defunct objects orbiting the Earth. Examples of debris include non-operational satellites, rocket bodies, and fragments generated from explosions, collisions, or faulty payload assembly.

Loading next visibility...
Identifier
3373, 1965-082ML
Orbit
LEO
Last TLE update
22 hours ago
Origin
Manufacturer
Unknown
Mission
Spacecraft
Bus & Motor
Unknown
Mass
Unknown
Launch date (UTC)
1965-10-15 (60 years ago)
Launch vehicle
Unknown
Launch site
Air Force Eastern Test Range (AFETR)
Object type
Payload
Rocket body
Debris
Shape & HBR
Unknown
Radar Cross Section
Small (<0.1 m²)

Expand to show TLE details & history

TLE from 22 hours ago
0 TITAN 3C TRANSTAGE DEB
1 03373U 65082ML  25191.47409886  .00004113  00000-0  90484-3 0  9998
2 03373  30.9771 349.7926 0157398 103.6566 258.1634 14.48588253  1115
Epoch: 2025-07-10T11:22Z
TLE epoch observation values (Epoch: 2025-07-10T11:22:42.141Z)
Latitude
0.00003°
Longitude
-109.5228°
Altitude
753.433 km
Speed
7.467 km/s
True Right ascension
23h 19m 10s
True Declination
0° 00' 00"
Sunlit
Object was in full shadow at epoch
Visualization orbit readout
Latitude
30.19927°
Longitude
-40.2326°
Altitude
637.71 km
Speed
7.593 km/s
Apparent Right ascension
06h 21m 59s
Apparent Declination
-3° 54' 34"
Sunlit
Object is in daylight
Visualization observer readout
Local Sidereal Time
21:31:20
Azimuth
62.524° ENE
Elevation
-34.215°
Doppler factor
1
Orbital elements
Apogee altitude
845.948 km
Perigee altitude
622.06 km
Semi-major axis
7,112.141 km
Eccentricity
0.01574
Inclination
30.9771°
RAAN
349.7926°
Arg. of periapsis
103.6566°
True anomaly
Unknown
Mean anomaly
258.1634°
Eccentric anomaly
Unknown
Mean motion
3.61862 °/min
Orbital period
99.49 mins
BSTAR
0.00090484
Loading maneuver chart data...
Loading SW <> Apogee altitude chart data...

TITAN 3C TRANSTAGE DEB Visibility forecast

Observer location: undefined°, undefined°

Span
Click to sort rows by Start time (UTC) header in descending order
Start Az.
Max El. time (UTC)
Max El. Az.
Max El.
End time (UTC)
End Az.
5 mins2025-07-11 14:04:40.068Z196.271° SSW2025-07-11 14:07:40.068Z156.755° SSE15.139°2025-07-11 14:09:40.068Z129.91° SE
6 mins2025-07-11 15:49:40.068Z217.142° SW2025-07-11 15:51:40.068Z183.384° SSW23.233°2025-07-11 15:55:40.068Z120.353° SE
5 mins2025-07-11 17:34:40.068Z226.88° WSW2025-07-11 17:36:40.068Z192.122° SSW21.602°2025-07-11 17:39:40.068Z143.096° SSE
|